FW2454 Weather Reports


time (UTC)temp
C
wind
direction
speed
KPH
gust
KPH
rain 1hr
cm
rain 24hr
cm
rain mn
cm
humidity
%
barometer
mb
20260503071532 20 105 0.0 0.0 0.00 3.84 0.00 95 1012.0
20260503054526 21 108 0.0 0.0 0.00 3.84 0.00 96 1012.8
20260503053020 21 108 0.0 0.0 0.00 3.84 0.00 96 1012.7
20260503051516 21 108 0.0 0.0 0.00 3.84 0.00 96 1012.7
20260503050014 21 108 0.0 0.0 0.00 3.84 0.00 96 1012.8
20260503044511 22 108 0.0 1.6 0.00 3.84 0.00 96 1012.9
20260503043009 22 128 0.0 0.0 0.00 3.84 0.00 96 1013.0
20260503041509 23 118 0.0 0.0 0.00 3.84 0.00 96 1013.1
20260503040002 23 118 0.0 0.0 0.00 3.84 3.84 96 1013.2
20260503034505 23 129 0.0 0.0 0.00 3.84 3.84 96 1013.3
20260503033103 23 131 0.0 0.0 0.00 3.84 3.84 96 1013.3
20260503031559 23 130 0.0 1.6 0.00 3.84 3.84 96 1013.2
20260503030059 23 127 0.0 1.6 0.00 3.84 3.84 96 1013.3
20260503024605 22 91 0.0 1.6 0.00 3.84 3.84 96 1013.2
20260503023056 23 122 0.0 1.6 0.00 3.84 3.84 96 1013.0
20260503021555 23 124 0.0 0.0 0.00 3.84 3.84 96 1012.8
20260503020055 23 124 0.0 0.0 0.00 3.84 3.84 96 1012.8
20260503014615 23 124 0.0 0.0 0.00 3.84 3.84 96 1012.6
20260503013056 23 124 0.0 1.6 0.00 3.84 3.84 96 1012.4
20260503011553 23 140 0.0 1.6 0.00 3.84 3.84 96 1012.2
20260503010053 23 196 0.0 0.0 0.00 3.84 3.84 95 1012.0
20260503004552 24 207 0.0 0.0 0.00 3.84 3.84 95 1011.8
20260503003051 24 186 0.0 1.6 0.00 3.84 3.84 95 1011.7
20260503001551 24 165 0.0 0.0 0.00 3.84 3.84 95 1011.5
20260503000053 23 136 0.0 1.6 0.00 3.91 3.84 95 1011.3
20260502234550 23 149 0.0 4.8 0.00 3.91 3.84 95 1011.1
20260502233049 23 187 0.0 4.8 0.18 3.91 3.84 96 1011.1
20260502231601 23 155 0.0 4.8 0.99 3.91 3.84 96 1010.8
20260502230050 23 191 1.6 6.4 2.90 3.91 3.84 96 1010.6
20260502224548 23 291 0.0 9.7 3.38 3.89 3.81 96 1010.6
20260502223048 23 292 0.0 4.8 3.45 3.73 3.66 95 1010.6
20260502221549 24 288 1.6 8.0 2.69 2.84 2.79 95 1010.7
20260502220050 24 251 3.2 12.9 0.89 0.97 0.89 94 1010.5
20260502214545 25 276 3.2 16.1 0.41 0.48 0.41 92 1010.2
20260502213045 26 252 4.8 11.3 0.20 0.28 0.20 93 1010.0
20260502211548 26 263 0.0 8.0 0.10 0.18 0.10 91 1010.0
20260502210050 27 288 1.6 14.5 0.00 0.08 0.00 87 1009.8
20260502204543 27 314 3.2 12.9 0.00 0.08 0.00 86 1009.7
20260502203043 28 326 8.0 14.5 0.00 0.08 0.00 84 1009.7
20260502201543 28 18 3.2 17.7 0.00 0.08 0.00 84 1009.8
20260502200043 28 335 3.2 16.1 0.00 0.08 0.00 83 1009.8
20260502194541 29 54 1.6 14.5 0.00 0.08 0.00 80 1009.9
20260502193041 30 277 3.2 11.3 0.00 0.08 0.00 79 1010.0
20260502191541 30 299 3.2 14.5 0.00 0.08 0.00 76 1009.9
20260502190040 30 309 3.2 9.7 0.00 0.08 0.00 75 1009.9
20260502184548 30 260 4.8 16.1 0.00 0.08 0.00 73 1010.1
20260502183038 31 323 3.2 9.7 0.00 0.08 0.00 71 1010.2
20260502181537 31 287 1.6 11.3 0.00 0.08 0.00 69 1010.4
20260502163032 30 299 1.6 11.3 0.00 0.08 0.00 70 1011.4
20260502161531 31 300 1.6 9.7 0.00 0.08 0.00 66 1011.6
20260502151526 30 255 3.2 9.7 0.00 0.08 0.00 64 1012.4
20260502123105 26 92 4.8 9.7 0.00 0.08 0.00 80 1012.2
20260502121604 26 89 3.2 8.0 0.00 0.08 0.00 82 1012.0
20260502114547 25 94 3.2 6.4 0.00 0.08 0.00 86 1011.8
20260502113045 24 100 3.2 4.8 0.00 0.08 0.00 89 1011.6
20260502111548 23 86 1.6 4.8 0.00 0.08 0.00 91 1011.5
20260502110042 23 96 0.0 3.2 0.00 0.08 0.00 94 1011.3
20260502104543 22 101 1.6 4.8 0.00 0.08 0.00 94 1011.2
20260502103139 22 98 0.0 0.0 0.00 0.08 0.00 95 1011.0
20260502101557 21 120 0.0 0.0 0.00 0.08 0.00 95 1010.8